Regional Weather Roundup
Issued by NWS

Home | Current Version | Previous Version | Text Only | Print | Product List | Glossary On
Versions: 1 2 3 4 5 6 7 8 9 10 11 12 13 14 15 16 17 18 19 20 21 22 23 24 25 26 27 28 29 30 31 32 33 34 35 36 37 38 39 40 41 42 43 44 45 46 47 48 49 50
000
ASUS43 KTOP 240408
RWRKS

WEATHER ROUNDUP FOR KANSAS
NATIONAL WEATHER SERVICE GOODLAND KS
1000 PM CST SUN NOV 23 2014

NOTE:  "FAIR" INDICATES FEW OR NO CLOUDS BELOW 12,000 FEET WITH NO
SIGNIFICANT WEATHER AND/OR OBSTRUCTIONS TO VISIBILITY.

KSZ001>006-013>018-027>032-041>047-240500-
NORTHWEST KANSAS

CITY           SKY/WX    TMP DP  RH WIND       PRES   REMARKS
GOODLAND       CLEAR     28  10  46 W13       29.83R WCI  17
HAYS           CLEAR     34  16  47 NW10      29.74S WCI  26
HILL CITY      FAIR      35  15  44 NW8       29.76S
RUSSELL        PTCLDY    37  23  56 NW13      29.72R WCI  29
$$

KSZ061>065-074>080-084>089-240500-
SOUTHWEST KANSAS

CITY           SKY/WX    TMP DP  RH WIND       PRES   REMARKS
DODGE CITY     CLEAR     38  12  34 NW16      29.79R WCI  29
ELKHART          N/A    N/A N/A N/A MISG        N/A
GARDEN CITY    CLEAR     29  13  51 NW9       29.83R
GREAT BEND     PTCLDY    37  19  48 NW13      29.74R WCI  29
LIBERAL        PTCLDY    34  12  40 NW10      29.87R WCI  26
PRATT          MOCLDY    37  27  65 NW13      29.74R WCI  29
$$

KSZ066>073-081>083-090>101-240500-
SOUTHEAST KANSAS

CITY           SKY/WX    TMP DP  RH WIND       PRES   REMARKS
CHANUTE        CLOUDY    43  37  79 NW17G26   29.54R
COFFEYVILLE    LGT RAIN  43  38  82 NW15G26   29.58R
HUTCHINSON     CLOUDY    44  28  53 NW18G25   29.67R
MEDICINE LODGE   N/A     42  27  55 NW9       29.72R
NEWTON         CLOUDY    39  30  70 NW14      29.65S WCI  31
PARSONS        LGT RAIN  43  39  86 NW18      29.56R
WICHITA INTL   CLOUDY    43  32  65 NW16      29.65R
WICHITA JABRA  CLOUDY    41  34  76 NW14      29.64R
WICHITA MCCONL CLOUDY    42  38  86 N13       29.65R
WINFIELD       CLOUDY    42  37  82 NW13      29.66R
$$

KSZ007>012-019>026-033>040-048>060-102>105-240500-
NORTHEAST KANSAS

CITY           SKY/WX    TMP DP  RH WIND       PRES   REMARKS
CONCORDIA      CLOUDY    39  27  62 NW15      29.64S WCI  31
EMPORIA        CLOUDY    41  35  79 NW15      29.57R
LAWRENCE       CLOUDY    41  34  76 NW16      29.51S
MANHATTAN      CLOUDY    41  34  76 VRB5      29.60S
MARYSVILLE     CLOUDY    39  30  70 NW29G38   29.58S WCI  28
OLATHE IND     CLOUDY    40  37  89 NW16G26   29.48S WCI  31
OLATHE EXE     CLOUDY    41  37  86 N10G23    29.46S
SALINA         MOCLDY    42  29  59 NW21G28   29.66R
TOPEKA BILLARD CLOUDY    43  34  70 NW12      29.54R
TOPEKA FORBES  CLOUDY    42  34  73 NW15      29.53R
$$


USA.gov is the U.S. government's official web portal to all federal, state and local government web resources and services.